Погода в Гараньюнсе

Бразилия     8°53′26″S   36°29′47″W
темп.,
°C
ветер,
м/с
пор.,
м/с
влажн.,
%
обл.,
%
осадки,
мм/ч
давл.,
гПа
погр.,
м
28 июля, ср
ср2800:00+17в259860 0.0 1018197
03:00+17вюв269883 0.0 1016238
06:00+18вюв369592 0.0 1017384
09:00+21вюв457453 0.1 1018821
12:00+24юв3364100 0.1 10171221
15:00+22в447438 0.1 1015588
18:00+18вюв37940 0.0 1015161
21:00+17вюв229823 0.0 101841
29 июля, чт
чт2900:00+16в119710 0.0 101722
03:00+15в22930 0.0 101717
06:00+15св22940 0.0 101725
09:00+23в34590 0.0 1018586
12:00+27юв33470 0.0 10161266
15:00+26юв43525 0.0 10141195
18:00+19юв359175 0.0 101782
21:00+17в2297100 0.0 101827
30 июля, пт
пт3000:00+16вюв229892 0.0 101829
03:00+16всв2510097 0.0 1018121
06:00+18вюв4788100 0.0 1019510
09:00+22вюв58635 0.0 1020879
12:00+25юв795019 0.0 10191499
15:00+24юв685626 0.0 10171390
18:00+18ююв489614 0.1 1020293
21:00+17юв399855 0.1 1021445
31 июля, сб
сб3100:00+16ююв3109942 0.1 1021433
03:00+17ююв499795 0.4 1019553
06:00+18юв499897 0.5 1021666
09:00+20юв698978 1.1 1022690
12:00+20вюв7108777 1.9 1021886
15:00+22юв797250 2.3 10191128
18:00+17юв4109848 0.3 1021525
21:00+18ююв5119792 0.4 1022663
1 августа, вс
вс100:00+17ююв6129699 0.3 1021722
03:00+18юв51198100 1.7 1020888
06:00+18юв51199100 3.4 10211103
09:00+18ююв51198100 5.4 1023879
12:00+18ююв51098100 1.1 1022852
15:00+18ююв6119598 3.1 1020768
18:00+17ююв6119896 1.1 1022697
21:00+17ююв51198100 1.6 1023670